| time (UTC) | temp F | wind direction | speed MPH | gust MPH | rain 1hr in | rain 24hr in | rain mn in | humidity % | barometer mb |
| 20260508204521 | 72 | 132 | 0.0 | 5.0 | 0.00 | 0.00 | 0.00 | 32 | 1007.3 |
| 20260508203011 | 71 | 167 | 0.0 | 11.0 | 0.00 | 0.00 | 0.00 | 31 | 1007.6 |
| 20260508201510 | 70 | 281 | 0.0 | 10.0 | 0.00 | 0.00 | 0.00 | 36 | 1007.9 |
| 20260508201507 | 70 | 122 | 0.0 | 10.0 | 0.00 | 0.00 | 0.00 | 36 | 1007.9 |
| 20260508200005 | 71 | 231 | 0.0 | 5.0 | 0.00 | 0.00 | 0.00 | 34 | 1008.0 |
| 20260508194501 | 71 | 8 | 0.0 | 3.0 | 0.00 | 0.00 | 0.00 | 34 | 1008.3 |
| 20260508193105 | 70 | 19 | 0.0 | 6.0 | 0.00 | 0.00 | 0.00 | 34 | 1008.5 |
| 20260508191553 | 70 | 82 | 0.0 | 7.0 | 0.00 | 0.00 | 0.00 | 35 | 1008.9 |
| 20260508190104 | 69 | 63 | 0.0 | 12.0 | 0.00 | 0.00 | 0.00 | 34 | 1009.1 |
| 20260508184551 | 69 | 109 | 0.0 | 12.0 | 0.00 | 0.00 | 0.00 | 35 | 1009.3 |
| 20260508183045 | 68 | 219 | 0.0 | 10.0 | 0.00 | 0.00 | 0.00 | 36 | 1009.7 |
| 20260508181557 | 68 | 219 | 0.0 | 0.0 | 0.00 | 0.00 | 0.00 | 38 | 1009.9 |
| 20260508180041 | 67 | 44 | 4.0 | 11.0 | 0.00 | 0.00 | 0.00 | 37 | 1010.2 |
| 20260508174540 | 67 | 39 | 0.0 | 0.0 | 0.00 | 0.00 | 0.00 | 36 | 1010.4 |
| 20260508173030 | 66 | 0.0 | 0.0 | 0.00 | 0.00 | 0.00 | 37 | 1010.7 | |
| 20260508171529 | 67 | 159 | 0.0 | 2.0 | 0.00 | 0.00 | 0.00 | 36 | 1010.9 |
| 20260508170028 | 67 | 286 | 0.0 | 7.0 | 0.00 | 0.00 | 0.00 | 36 | 1011.1 |
| 20260508164525 | 65 | 360 | 0.0 | 2.0 | 0.00 | 0.00 | 0.00 | 37 | 1011.2 |
| 20260508163032 | 64 | 251 | 0.0 | 0.0 | 0.00 | 0.00 | 0.00 | 40 | 1011.3 |
| 20260508161527 | 63 | 122 | 0.0 | 0.0 | 0.00 | 0.00 | 0.00 | 43 | 1011.5 |
| 20260508160017 | 62 | 107 | 0.0 | 0.0 | 0.00 | 0.00 | 0.00 | 45 | 1011.6 |
| 20260508154516 | 63 | 303 | 0.0 | 0.0 | 0.00 | 0.00 | 0.00 | 46 | 1011.8 |
| 20260508153010 | 61 | 223 | 0.0 | 0.0 | 0.00 | 0.00 | 0.00 | 51 | 1011.9 |
| 20260508151507 | 60 | 148 | 0.0 | 0.0 | 0.00 | 0.00 | 0.00 | 55 | 1011.9 |
| 20260508150003 | 57 | 360 | 0.0 | 0.0 | 0.00 | 0.00 | 0.00 | 60 | 1012.0 |
| 20260508144606 | 55 | 46 | 0.0 | 0.0 | 0.00 | 0.00 | 0.00 | 63 | 1012.2 |
| 20260508143057 | 54 | 61 | 0.0 | 0.0 | 0.00 | 0.00 | 0.00 | 68 | 1012.3 |
| 20260508141558 | 52 | 278 | 0.0 | 0.0 | 0.00 | 0.00 | 0.00 | 71 | 1012.5 |
| 20260508140050 | 50 | 240 | 0.0 | 0.0 | 0.00 | 0.00 | 0.00 | 73 | 1012.7 |
| 20260508134558 | 49 | 118 | 0.0 | 0.0 | 0.00 | 0.00 | 0.00 | 77 | 1012.8 |
| 20260508133047 | 47 | 37 | 0.0 | 0.0 | 0.00 | 0.00 | 0.00 | 80 | 1012.7 |
| 20260508131547 | 45 | 19 | 0.0 | 0.0 | 0.00 | 0.00 | 0.00 | 82 | 1012.7 |
| 20260508130045 | 43 | 220 | 0.0 | 0.0 | 0.00 | 0.00 | 0.00 | 82 | 1012.6 |
| 20260508124543 | 43 | 154 | 0.0 | 0.0 | 0.00 | 0.00 | 0.00 | 82 | 1012.4 |
| 20260508123042 | 44 | 105 | 0.0 | 0.0 | 0.00 | 0.00 | 0.00 | 82 | 1012.4 |
| 20260508121541 | 44 | 290 | 0.0 | 0.0 | 0.00 | 0.00 | 0.00 | 81 | 1012.3 |
| 20260508120035 | 44 | 50 | 0.0 | 0.0 | 0.00 | 0.00 | 0.00 | 82 | 1012.3 |
| 20260508114537 | 44 | 293 | 0.0 | 0.0 | 0.00 | 0.00 | 0.00 | 83 | 1012.2 |
| 20260508113035 | 44 | 355 | 0.0 | 0.0 | 0.00 | 0.00 | 0.00 | 82 | 1012.1 |
| 20260508111528 | 44 | 110 | 0.0 | 0.0 | 0.00 | 0.00 | 0.00 | 83 | 1011.9 |
| 20260508110025 | 44 | 136 | 0.0 | 0.0 | 0.00 | 0.00 | 0.00 | 82 | 1011.8 |
| 20260508104523 | 46 | 13 | 0.0 | 0.0 | 0.00 | 0.00 | 0.00 | 80 | 1011.6 |
| 20260508103020 | 45 | 108 | 0.0 | 0.0 | 0.00 | 0.00 | 0.00 | 82 | 1011.4 |
| 20260508101519 | 45 | 153 | 0.0 | 0.0 | 0.00 | 0.00 | 0.00 | 82 | 1011.2 |
| 20260508100018 | 46 | 201 | 0.0 | 0.0 | 0.00 | 0.00 | 0.00 | 80 | 1011.2 |
| 20260508094511 | 46 | 120 | 0.0 | 0.0 | 0.00 | 0.00 | 0.00 | 80 | 1011.2 |
| 20260508093039 | 46 | 122 | 0.0 | 0.0 | 0.00 | 0.00 | 0.00 | 80 | 1011.1 |
| 20260508091541 | 47 | 256 | 0.0 | 0.0 | 0.00 | 0.00 | 0.00 | 79 | 1011.1 |
| 20260508090005 | 47 | 203 | 0.0 | 0.0 | 0.00 | 0.00 | 0.00 | 79 | 1011.1 |
| 20260508084505 | 48 | 241 | 0.0 | 0.0 | 0.00 | 0.00 | 0.00 | 78 | 1011.0 |
| 20260508083104 | 48 | 155 | 0.0 | 0.0 | 0.00 | 0.00 | 0.00 | 79 | 1011.1 |
| 20260508081556 | 47 | 172 | 0.0 | 0.0 | 0.00 | 0.00 | 0.00 | 81 | 1011.1 |
| 20260508080031 | 47 | 264 | 0.0 | 0.0 | 0.00 | 0.00 | 0.00 | 81 | 1011.1 |
| 20260508074525 | 48 | 189 | 0.0 | 0.0 | 0.00 | 0.00 | 0.00 | 79 | 1011.0 |
| 20260508073026 | 48 | 0.0 | 0.0 | 0.00 | 0.00 | 0.00 | 79 | 1010.9 | |
| 20260508071537 | 49 | 108 | 0.0 | 0.0 | 0.00 | 0.00 | 0.00 | 79 | 1011.0 |
| 20260508070020 | 49 | 315 | 0.0 | 0.0 | 0.00 | 0.00 | 0.00 | 77 | 1010.9 |
| 20260508064516 | 50 | 174 | 0.0 | 0.0 | 0.00 | 0.00 | 0.00 | 75 | 1011.0 |
| 20260508063028 | 51 | 359 | 0.0 | 1.0 | 0.00 | 0.00 | 0.00 | 73 | 1010.7 |
| 20260508061513 | 52 | 276 | 0.0 | 2.0 | 0.00 | 0.00 | 0.00 | 72 | 1010.8 |
| 20260508060011 | 51 | 0.0 | 1.0 | 0.00 | 0.00 | 0.00 | 72 | 1010.7 | |
| 20260508054509 | 52 | 322 | 1.0 | 11.0 | 0.00 | 0.00 | 0.00 | 69 | 1010.7 |
| 20260508053007 | 51 | 232 | 0.0 | 1.0 | 0.00 | 0.00 | 0.00 | 69 | 1010.7 |
| 20260508051505 | 49 | 205 | 0.0 | 0.0 | 0.00 | 0.00 | 0.00 | 72 | 1010.8 |
| 20260508050004 | 49 | 15 | 0.0 | 0.0 | 0.00 | 0.00 | 0.00 | 71 | 1010.8 |
| 20260508044531 | 49 | 145 | 0.0 | 0.0 | 0.00 | 0.00 | 0.00 | 68 | 1010.7 |
| 20260508043029 | 50 | 252 | 0.0 | 0.0 | 0.00 | 0.00 | 0.00 | 68 | 1010.7 |
| 20260508041558 | 50 | 321 | 0.0 | 0.0 | 0.00 | 0.00 | 0.00 | 67 | 1010.6 |
| 20260508040101 | 51 | 101 | 0.0 | 0.0 | 0.00 | 0.00 | 0.00 | 65 | 1010.6 |
| 20260508034519 | 53 | 150 | 0.0 | 0.0 | 0.00 | 0.00 | 0.00 | 62 | 1010.6 |
| 20260508033018 | 54 | 281 | 0.0 | 0.0 | 0.00 | 0.00 | 0.00 | 61 | 1010.5 |
| 20260508031512 | 54 | 221 | 0.0 | 0.0 | 0.00 | 0.00 | 0.00 | 59 | 1010.5 |
| 20260508030012 | 56 | 71 | 0.0 | 0.0 | 0.00 | 0.00 | 0.00 | 57 | 1010.3 |
| 20260508024517 | 57 | 309 | 0.0 | 0.0 | 0.00 | 0.00 | 0.00 | 55 | 1010.1 |
| 20260508023015 | 58 | 193 | 0.0 | 0.0 | 0.00 | 0.00 | 0.00 | 54 | 1010.0 |
| 20260508021507 | 59 | 251 | 0.0 | 0.0 | 0.00 | 0.00 | 0.00 | 51 | 1009.7 |
| 20260508020007 | 60 | 95 | 0.0 | 0.0 | 0.00 | 0.00 | 0.00 | 52 | 1009.6 |
| 20260508014508 | 60 | 240 | 0.0 | 0.0 | 0.00 | 0.00 | 0.00 | 49 | 1009.4 |
| 20260508013006 | 61 | 262 | 0.0 | 0.0 | 0.00 | 0.00 | 0.00 | 48 | 1009.5 |
| 20260508011535 | 61 | 72 | 0.0 | 0.0 | 0.00 | 0.00 | 0.00 | 48 | 1009.5 |
| 20260508010036 | 62 | 82 | 0.0 | 0.0 | 0.00 | 0.00 | 0.00 | 47 | 1009.4 |
| 20260508004534 | 62 | 195 | 0.0 | 0.0 | 0.00 | 0.00 | 0.00 | 45 | 1009.3 |
| 20260508003030 | 63 | 158 | 0.0 | 8.0 | 0.00 | 0.00 | 0.00 | 42 | 1009.2 |
| 20260508001531 | 64 | 360 | 0.0 | 8.0 | 0.00 | 0.00 | 0.00 | 40 | 1009.3 |
| 20260508000029 | 65 | 186 | 1.0 | 10.0 | 0.00 | 0.00 | 0.00 | 38 | 1009.3 |
| 20260507234526 | 65 | 80 | 0.0 | 14.0 | 0.00 | 0.00 | 0.00 | 36 | 1009.3 |
| 20260507233038 | 66 | 157 | 0.0 | 3.0 | 0.00 | 0.00 | 0.00 | 37 | 1009.0 |
| 20260507231533 | 65 | 283 | 0.0 | 10.0 | 0.00 | 0.00 | 0.00 | 39 | 1009.1 |
| 20260507230024 | 65 | 86 | 2.0 | 11.0 | 0.00 | 0.00 | 0.00 | 37 | 1008.9 |
| 20260507224521 | 65 | 356 | 2.0 | 11.0 | 0.00 | 0.00 | 0.00 | 37 | 1008.8 |
| 20260507223021 | 66 | 92 | 8.0 | 23.0 | 0.00 | 0.00 | 0.00 | 34 | 1008.8 |
| 20260507221525 | 68 | 10 | 0.0 | 7.0 | 0.00 | 0.00 | 0.00 | 32 | 1008.7 |
| 20260507220020 | 68 | 360 | 1.0 | 16.0 | 0.00 | 0.00 | 0.00 | 30 | 1008.6 |
| 20260507214512 | 69 | 0.0 | 6.0 | 0.00 | 0.00 | 0.00 | 31 | 1008.9 | |
| 20260507213012 | 69 | 160 | 0.0 | 3.0 | 0.00 | 0.00 | 0.00 | 30 | 1009.0 |
| 20260507211512 | 68 | 348 | 1.0 | 15.0 | 0.00 | 0.00 | 0.00 | 31 | 1009.2 |
| 20260507210006 | 68 | 3.0 | 13.0 | 0.00 | 0.00 | 0.00 | 31 | 1009.5 |